Preview of NWS' New Version of Forecast
This preview is not operational and should not be used for support decisions.

Regional Weather Roundup (RWR)

Issued by National Weather Service (NWS)

                            
000
ASUS46 KPQR 162210
RWROR 

OREGON REGIONAL WEATHER ROUNDUP
NATIONAL WEATHER SERVICE PORTLAND OR
300 PM PDT FRI AUG 16 2019

NOTE: "FAIR" INDICATES FEW OR NO CLOUDS BELOW 12,000 FEET WITH
NO SIGNIFICANT WEATHER AND/OR OBSTRUCTIONS TO VISIBILITY.

ORZ001>013-162300-
NORTHWEST OREGON

  
CITY           SKY/WX    TMP DP  RH WIND       PRES   REMARKS
ASTORIA        CLOUDY    65  55  70 NW10      30.14F                  
TILLAMOOK      CLOUDY    70  52  52 NW15      30.15S                  
PORTLAND       PTSUNNY   75  50  41 VRB5      30.10F                  
VANCOUVER WA   MOSUNNY   73  50  44 VRB5      30.10F                  
SCAPPOOSE      CLOUDY    75  52  44 MISG      30.09F                  
HILLSBORO      MOSUNNY   75  50  41 MISG      30.09F                  
AURORA         SUNNY     76  48  37 NE9       30.10F                  
MCMINNVILLE    SUNNY     74  50  42 VRB3      30.09F                  
SALEM          SUNNY     75  47  36 N9        30.08F                  
CORVALLIS      SUNNY     78  53  41 NE6       30.08F                  
EUGENE         MOSUNNY   78  49  35 VRB5      30.08F                  
$$

ORZ021-028-162300-
SOUTHWEST OREGON

  
CITY           SKY/WX    TMP DP  RH WIND       PRES   REMARKS
NORTH BEND     SUNNY     70  54  56 N22       30.11F                  
BROOKINGS      SUNNY     83  56  39 NW16G23   29.93F                  
ROSEBURG       SUNNY     79  55  43 N7G18     30.04F                  
SEXTON SUMMIT  SUNNY     74  44  34 CALM      30.12F                  
GRANTS PASS    FAIR      88  41  19 N13       30.01F                  
MEDFORD        SUNNY     87  43  21 W6        29.97F                  
$$

ORZ014>016-041-162300-
COLUMBIA GORGE

  
CITY           SKY/WX    TMP DP  RH WIND       PRES   REMARKS
TROUTDALE      PTSUNNY   74  49  41 VRB6      30.10F                  
HOOD RIVER     SUNNY     73  46  38 W10G20    30.02S                  
THE DALLES     SUNNY     80  47  31 NW22G33   29.95F                  
$$

ORZ029>031-041-044-049-050-061>064-502-503-505>511-162300-
EASTERN OREGON

  
CITY           SKY/WX    TMP DP  RH WIND       PRES   REMARKS
MADRAS         SUNNY     81  30  16 NW6       30.02F                  
REDMOND        SUNNY     85  31  14 NE9       30.02F                  
BEND           SUNNY     82  27  13 NW9       30.04F                  
PRINEVILLE     SUNNY     79  27  14 NE12      30.03F                  
KLAMATH FALLS  SUNNY     83  34  17 N12       30.06F                  
LAKEVIEW       SUNNY     82  35  18 SE8       30.07F                  
HERMISTON      SUNNY     86  40  19 W14G21    29.90F                  
PENDLETON      SUNNY     83  40  21 W7G17     29.93F                  
JOHN DAY       SUNNY     81  28  14 W13       30.03F                  
MEACHAM        SUNNY     74  40  29 VRB3      30.04F                  
LA GRANDE      SUNNY     81  43  26 N9        29.97F                  
BAKER CITY     SUNNY     82  43  25 NW9       29.99F                  
BURNS          SUNNY     83  27  13 W8G17     30.03F                  
ROME             N/A     87  31  13 SW7       29.99F                  
ONTARIO        SUNNY     91  35  13 SW12      29.91F                  
$$